Location: Newark
(13.8625°N, 100.5144°E)
Time: 02:33:23
(UTC+00:00)

RS-44 - Visible Passes

Search period start: 26 July 2021 00:00
Search period end: 05 August 2021 00:00
Orbit: 1174 x 1510 km, 82.5° (Epoch: 25 July)

Date Brightness Start Highest point End Pass type
(mag) Time Alt. Az. Time Alt. Az. Time Alt. Az.
26 Jul ? 14:12:07 10° N 14:20:07 65° ENE 14:20:07 65° ENE visible
26 Jul ? 16:08:42 10° NW 16:12:45 16° W 16:12:45 16° W visible
27 Jul ? 12:47:01 10° NE 12:51:01 14° E 12:51:37 14° E visible
27 Jul ? 14:35:48 10° N 14:44:15 75° WNW 14:44:15 75° WNW visible
28 Jul ? 13:07:59 10° NNE 13:14:59 26° E 13:15:48 26° E visible
28 Jul ? 15:00:01 10° NNW 15:08:13 45° W 15:08:25 45° W visible
29 Jul ? 13:30:33 10° NNE 13:38:52 46° E 13:40:01 44° ESE visible
29 Jul ? 15:24:59 10° NW 15:31:48 26° W 15:32:39 25° W visible
30 Jul ? 13:53:51 10° N 14:02:40 77° E 14:04:17 63° SSE visible
30 Jul ? 15:51:37 10° WNW 15:55:20 13° W 15:56:55 13° W visible
31 Jul ? 12:27:45 10° NE 12:32:56 17° E 12:35:58 14° ESE visible
31 Jul ? 14:17:41 10° NNW 14:26:23 66° W 14:28:37 52° SSW visible
01 Aug ? 12:49:23 10° NNE 12:56:53 31° E 13:00:21 24° ESE visible
01 Aug ? 14:42:05 10° NNW 14:50:03 39° W 14:53:00 31° SW visible
02 Aug ? 13:12:11 10° N 13:20:46 53° E 13:24:49 32° SE visible
02 Aug ? 15:07:20 10° NW 15:13:37 22° W 15:17:28 17° WSW visible
03 Aug ? 13:35:38 10° N 13:44:32 87° E 13:49:21 32° S visible
03 Aug ? 15:35:28 10° WNW 15:37:05 11° W 15:38:42 10° W visible
04 Aug ? 12:08:49 10° NE 12:14:51 20° E 12:20:49 10° SE visible
04 Aug ? 13:59:37 10° NNW 14:08:15 58° W 14:13:59 23° SSW visible
